• In Netherlands
  • List of Countries
  • For 7 days
  • Water Temperature
  • Satellite Maps
  • Weather Map
  • Weather Widgets
  • user-avatar
    Login

    Hourly Weather Kalgoorlie

    Today, 24 January, Tuesday

    Time Temperature Precipitation Wind Pressure Humidity
    00:00 +20°C° 0 mm 8 mps 731 mmHg 55%
    01:00 +18°C° 0 mm 8 mps 731 mmHg 59%
    02:00 +17°C° 0 mm 7 mps 731 mmHg 62%
    03:00 +17°C° 0 mm 7 mps 731 mmHg 65%
    04:00 +16°C° 0 mm 6 mps 731 mmHg 68%
    05:00 +15°C° 0 mm 6 mps 731 mmHg 71%
    06:00 +16°C° 0 mm 6 mps 732 mmHg 66%
    07:00 +17°C° 0 mm 6 mps 732 mmHg 61%
    08:00 +19°C° 0 mm 6 mps 732 mmHg 56%
    09:00 +21°C° 0 mm 6 mps 732 mmHg 48%
    10:00 +24°C° 0 mm 6 mps 732 mmHg 40%
    11:00 +27°C° 0 mm 5 mps 732 mmHg 32%
    12:00 +28°C° 0 mm 5 mps 732 mmHg 28%
    13:00 +30°C° 0 mm 5 mps 731 mmHg 25%
    14:00 +32°C° 0 mm 5 mps 731 mmHg 22%
    15:00 +32°C° 0 mm 5 mps 731 mmHg 21%
    16:00 +32°C° 0 mm 5 mps 730 mmHg 20%
    17:00 +32°C° 0 mm 4 mps 730 mmHg 19%
    18:00 +30°C° 0 mm 4 mps 731 mmHg 21%
    19:00 +28°C° 0 mm 4 mps 731 mmHg 23%
    20:00 +26°C° 0 mm 4 mps 731 mmHg 25%
    21:00 +26°C° 0 mm 4 mps 731 mmHg 26%
    22:00 +25°C° 0 mm 4 mps 732 mmHg 26%
    23:00 +23°C° 0 mm 5 mps 732 mmHg 27%

    Tomorrow, 25 January, Wednesday

    Time Temperature Precipitation Wind Pressure Humidity
    00:00 +22°C° 0 mm 5 mps 732 mmHg 32%
    01:00 +21°C° 0 mm 5 mps 732 mmHg 37%
    02:00 +20°C° 0 mm 6 mps 732 mmHg 43%
    03:00 +19°C° 0 mm 5 mps 732 mmHg 48%
    04:00 +19°C° 0 mm 5 mps 732 mmHg 54%
    05:00 +17°C° 0 mm 5 mps 732 mmHg 60%
    06:00 +19°C° 0 mm 5 mps 732 mmHg 55%
    07:00 +21°C° 0 mm 5 mps 733 mmHg 50%
    08:00 +22°C° 0 mm 5 mps 733 mmHg 46%
    09:00 +26°C° 0 mm 5 mps 733 mmHg 38%
    10:00 +28°C° 0 mm 5 mps 733 mmHg 30%
    11:00 +30°C° 0 mm 5 mps 733 mmHg 23%
    12:00 +32°C° 0 mm 5 mps 732 mmHg 20%
    13:00 +33°C° 0 mm 5 mps 732 mmHg 18%
    14:00 +34°C° 0 mm 5 mps 732 mmHg 16%
    15:00 +34°C° 0 mm 5 mps 731 mmHg 16%
    16:00 +34°C° 0 mm 5 mps 731 mmHg 16%
    17:00 +34°C° 0 mm 5 mps 731 mmHg 16%
    18:00 +33°C° 0 mm 5 mps 731 mmHg 18%
    19:00 +30°C° 0 mm 4 mps 731 mmHg 20%
    20:00 +28°C° 0 mm 4 mps 732 mmHg 23%
    21:00 +27°C° 0 mm 4 mps 732 mmHg 24%
    22:00 +26°C° 0 mm 5 mps 732 mmHg 25%
    23:00 +25°C° 0 mm 5 mps 732 mmHg 27%

    Day after tomorrow, 26 January, Thursday

    Time Temperature Precipitation Wind Pressure Humidity
    00:00 +23°C° 0 mm 5 mps 732 mmHg 33%
    01:00 +22°C° 0 mm 5 mps 732 mmHg 39%
    02:00 +21°C° 0 mm 5 mps 731 mmHg 45%
    03:00 +21°C° 0 mm 5 mps 731 mmHg 50%
    04:00 +20°C° 0 mm 4 mps 731 mmHg 55%
    05:00 +19°C° 0 mm 4 mps 731 mmHg 60%
    06:00 +21°C° 0 mm 4 mps 732 mmHg 53%
    07:00 +22°C° 0 mm 5 mps 732 mmHg 46%
    08:00 +25°C° 0 mm 5 mps 732 mmHg 40%
    09:00 +27°C° 0 mm 5 mps 732 mmHg 33%
    10:00 +29°C° 0 mm 4 mps 732 mmHg 26%
    11:00 +33°C° 0 mm 4 mps 731 mmHg 19%
    12:00 +34°C° 0 mm 4 mps 731 mmHg 17%
    13:00 +35°C° 0 mm 3 mps 730 mmHg 15%
    14:00 +36°C° 0 mm 3 mps 729 mmHg 13%
    15:00 +36°C° 0 mm 3 mps 729 mmHg 12%
    16:00 +36°C° 0 mm 3 mps 729 mmHg 12%
    17:00 +36°C° 0 mm 3 mps 728 mmHg 12%
    18:00 +35°C° 0 mm 3 mps 728 mmHg 14%
    19:00 +33°C° 0 mm 3 mps 729 mmHg 16%
    20:00 +30°C° 0 mm 3 mps 729 mmHg 18%
    21:00 +29°C° 0 mm 3 mps 729 mmHg 19%
    22:00 +28°C° 0 mm 4 mps 729 mmHg 20%
    23:00 +27°C° 0 mm 4 mps 729 mmHg 21%

    27 January, Friday

    Time Temperature Precipitation Wind Pressure Humidity
    00:00 +26°C° 0 mm 4 mps 729 mmHg 21%
    01:00 +26°C° 0 mm 4 mps 728 mmHg 21%
    02:00 +25°C° 0 mm 3 mps 728 mmHg 20%
    03:00 +24°C° 0 mm 3 mps 728 mmHg 20%
    04:00 +24°C° 0 mm 3 mps 728 mmHg 21%
    05:00 +22°C° 0 mm 3 mps 727 mmHg 21%
    06:00 +26°C° 0 mm 4 mps 728 mmHg 20%
    07:00 +28°C° 0 mm 4 mps 728 mmHg 20%
    08:00 +30°C° 0 mm 4 mps 729 mmHg 19%
    09:00 +33°C° 0 mm 3 mps 729 mmHg 18%
    10:00 +34°C° 0 mm 2 mps 728 mmHg 16%
    11:00 +36°C° 0 mm 2 mps 728 mmHg 15%
    12:00 +37°C° 0 mm 2 mps 727 mmHg 13%
    13:00 +38°C° 0 mm 2 mps 727 mmHg 11%
    14:00 +40°C° 0 mm 2 mps 726 mmHg 9%
    15:00 +40°C° 0 mm 3 mps 726 mmHg 9%
    16:00 +40°C° 0 mm 3 mps 726 mmHg 9%
    17:00 +41°C° 0 mm 4 mps 726 mmHg 9%
    18:00 +38°C° 0 mm 4 mps 726 mmHg 10%
    19:00 +36°C° 0 mm 4 mps 727 mmHg 11%
    20:00 +34°C° 0 mm 4 mps 727 mmHg 13%
    21:00 +33°C° 0 mm 4 mps 727 mmHg 16%
    22:00 +30°C° 0 mm 5 mps 727 mmHg 19%
    23:00 +29°C° 0 mm 5 mps 728 mmHg 23%

    28 January, Saturday

    Time Temperature Precipitation Wind Pressure Humidity
    00:00 +28°C° 0 mm 6 mps 727 mmHg 29%
    01:00 +26°C° 0 mm 6 mps 727 mmHg 35%
    02:00 +24°C° 0 mm 6 mps 727 mmHg 41%
    03:00 +23°C° 0 mm 6 mps 727 mmHg 46%
    04:00 +22°C° 0 mm 6 mps 727 mmHg 51%
    05:00 +22°C° 0 mm 6 mps 728 mmHg 56%
    06:00 +23°C° 0 mm 6 mps 728 mmHg 52%
    07:00 +24°C° 0 mm 6 mps 728 mmHg 48%
    08:00 +27°C° 0 mm 6 mps 729 mmHg 44%
    09:00 +30°C° 0 mm 6 mps 729 mmHg 38%
    10:00 +34°C° 0 mm 6 mps 728 mmHg 33%
    11:00 +38°C° 0 mm 6 mps 728 mmHg 28%
    12:00 +40°C° 0 mm 5 mps 727 mmHg 24%
    13:00 +41°C° 0 mm 5 mps 727 mmHg 21%
    14:00 +43°C° 0 mm 4 mps 726 mmHg 17%
    15:00 +43°C° 0 mm 4 mps 726 mmHg 17%
    16:00 +43°C° 0 mm 4 mps 726 mmHg 17%
    17:00 +42°C° 0 mm 5 mps 726 mmHg 17%
    18:00 +41°C° 0 mm 5 mps 726 mmHg 23%
    19:00 +39°C° 0 mm 5 mps 726 mmHg 29%
    20:00 +36°C° 0 mm 5 mps 727 mmHg 34%
    21:00 +36°C° 0.1 mm 5 mps 727 mmHg 37%
    22:00 +35°C° 0.1 mm 5 mps 727 mmHg 39%
    23:00 +34°C° 0.1 mm 5 mps 727 mmHg 41%

    29 January, Sunday

    Time Temperature Precipitation Wind Pressure Humidity
    00:00 +33°C° 0.6 mm 5 mps 727 mmHg 45%
    01:00 +32°C° 0.6 mm 5 mps 726 mmHg 49%
    02:00 +30°C° 0.6 mm 5 mps 726 mmHg 53%
    03:00 +30°C° 0 mm 5 mps 726 mmHg 53%
    04:00 +30°C° 0 mm 5 mps 726 mmHg 54%
    05:00 +30°C° 0 mm 5 mps 726 mmHg 55%
    06:00 +32°C° 0.1 mm 6 mps 727 mmHg 50%
    07:00 +34°C° 0.1 mm 6 mps 727 mmHg 44%
    08:00 +36°C° 0.1 mm 6 mps 727 mmHg 39%
    09:00 +39°C° 0 mm 6 mps 727 mmHg 34%
    10:00 +41°C° 0 mm 6 mps 727 mmHg 28%
    11:00 +44°C° 0 mm 6 mps 726 mmHg 23%
    12:00 +44°C° 0 mm 6 mps 726 mmHg 22%
    13:00 +44°C° 0 mm 6 mps 725 mmHg 22%
    14:00 +44°C° 0 mm 6 mps 725 mmHg 21%
    15:00 +43°C° 0 mm 5 mps 724 mmHg 21%
    16:00 +43°C° 0 mm 5 mps 724 mmHg 21%
    17:00 +43°C° 0 mm 4 mps 724 mmHg 20%
    18:00 +42°C° 0 mm 3 mps 724 mmHg 22%
    19:00 +39°C° 0 mm 3 mps 725 mmHg 24%
    20:00 +38°C° 0 mm 2 mps 725 mmHg 26%
    21:00 +36°C° 0.2 mm 3 mps 725 mmHg 33%
    22:00 +34°C° 0.2 mm 4 mps 725 mmHg 40%
    23:00 +32°C° 0.2 mm 5 mps 725 mmHg 47%
    Show more